TVS478F LFBT-LKPR

Flight info

Callsign TVS478F
Flight time 1h 59m
Altitude 40000
Route USAKU DCT TOU DCT GAI DCT MEN DCT NINUN DCT LATAM DCT ETREK DCT LTP DCT SOPLO DCT OMASI DCT KINNI DCT SOSAL DCT KORED DCT BERSU DCT DITON DCT DEGES DCT GAMSA/N0423F390 DCT KONIN DCT MEBEK DCT NENUM Z39 DOLUP DCT APRAQ
Aircraft B738/M-SDE3FGHIJ1RWXYZ/LB1

Departure

Time 2026-04-23 19:39
Airport Tarbes-Lourdes-Pyrénées Airport (LFBT)

Arrival

Time 2026-04-23 21:39
Airport Václav Havel Airport Prague (LKPR)
Time Latitude Longitude Altitude Speed Heading
2026-04-23 19:03 43.18502 0.00250 1213 ft 0 kts 16°
2026-04-23 19:30 43.18487 0.00243 1217 ft 2 kts 15°
2026-04-23 19:30 43.18455 0.00231 1221 ft 2 kts 14°
2026-04-23 19:31 43.18439 0.00226 1221 ft 2 kts 11°
2026-04-23 19:31 43.18422 0.00223 1222 ft 2 kts 331°
2026-04-23 19:31 43.18415 0.00242 1222 ft 2 kts 287°
2026-04-23 19:31 43.18412 0.00258 1222 ft 0 kts 284°
2026-04-23 19:33 43.18416 0.00229 1222 ft 5 kts 282°
2026-04-23 19:34 43.18428 0.00145 1223 ft 11 kts 265°
2026-04-23 19:34 43.18373 0.00083 1226 ft 11 kts 209°
2026-04-23 19:34 43.18215 -0.00037 1205 ft 17 kts 210°
2026-04-23 19:35 43.18097 -0.00128 1209 ft 21 kts 209°
2026-04-23 19:35 43.17957 -0.00234 1213 ft 23 kts 209°
2026-04-23 19:35 43.17818 -0.00339 1217 ft 23 kts 211°
2026-04-23 19:35 43.17683 -0.00442 1221 ft 22 kts 207°
2026-04-23 19:36 43.17547 -0.00528 1225 ft 21 kts 202°
2026-04-23 19:36 43.17410 -0.00597 1230 ft 21 kts 200°
2026-04-23 19:36 43.17278 -0.00665 1238 ft 20 kts 200°
2026-04-23 19:36 43.17149 -0.00731 1245 ft 19 kts 200°
2026-04-23 19:37 43.17025 -0.00793 1247 ft 19 kts 200°
2026-04-23 19:37 43.16904 -0.00854 1253 ft 18 kts 200°
2026-04-23 19:37 43.16788 -0.00913 1258 ft 18 kts 198°
2026-04-23 19:37 43.16680 -0.00982 1262 ft 17 kts 219°
2026-04-23 19:38 43.16599 -0.01082 1263 ft 14 kts 226°
2026-04-23 19:38 43.16591 -0.01206 1272 ft 14 kts 290°
2026-04-23 19:38 43.16686 -0.01230 1264 ft 22 kts 23°
2026-04-23 19:38 43.16987 -0.01079 1252 ft 81 kts 20°
2026-04-23 19:39 43.17733 -0.00701 1226 ft 144 kts 21°
2026-04-23 19:39 43.18725 -0.00202 1744 ft 150 kts 21°
2026-04-23 19:39 43.19393 0.00143 2130 ft 161 kts 22°
2026-04-23 19:39 43.20945 0.00949 2610 ft 199 kts 21°
2026-04-23 19:40 43.21841 0.01404 2788 ft 216 kts 20°
2026-04-23 19:40 43.23349 0.02159 3011 ft 246 kts 21°
2026-04-23 19:40 43.25036 0.03021 3418 ft 265 kts 23°
2026-04-23 19:40 43.26733 0.04050 4215 ft 269 kts 25°
2026-04-23 19:41 43.28438 0.05137 5035 ft 272 kts 25°
2026-04-23 19:41 43.30159 0.06240 5856 ft 275 kts 25°
2026-04-23 19:41 43.31903 0.07355 6592 ft 277 kts 25°
2026-04-23 19:41 43.33660 0.08472 6906 ft 282 kts 25°
2026-04-23 19:42 43.35448 0.09606 7328 ft 284 kts 24°
2026-04-23 19:42 43.37255 0.10749 8109 ft 288 kts 24°
2026-04-23 19:42 43.39080 0.11903 8995 ft 290 kts 24°
2026-04-23 19:42 43.40918 0.13064 9906 ft 292 kts 24°
2026-04-23 19:43 43.42788 0.14273 10546 ft 305 kts 27°
2026-04-23 19:43 43.44405 0.16333 10819 ft 333 kts 58°
2026-04-23 19:43 43.45213 0.19339 11576 ft 339 kts 73°
2026-04-23 19:43 43.45827 0.22487 12428 ft 342 kts 74°
2026-04-23 19:44 43.46437 0.25673 13313 ft 346 kts 73°
2026-04-23 19:44 43.47065 0.28895 14121 ft 352 kts 72°
2026-04-23 19:44 43.47719 0.32166 14890 ft 357 kts 72°
2026-04-23 19:44 43.48391 0.35463 15784 ft 358 kts 72°
2026-04-23 19:45 43.49077 0.38783 16556 ft 364 kts 72°
2026-04-23 19:45 43.49780 0.42155 17356 ft 368 kts 72°
2026-04-23 19:45 43.50494 0.45564 18191 ft 372 kts 72°
2026-04-23 19:45 43.51217 0.49014 18882 ft 378 kts 72°
2026-04-23 19:46 43.51949 0.52502 19609 ft 380 kts 72°
2026-04-23 19:46 43.52685 0.56022 20335 ft 384 kts 72°
2026-04-23 19:46 43.53427 0.59569 21027 ft 387 kts 71°
2026-04-23 19:46 43.54176 0.63157 21704 ft 392 kts 71°
2026-04-23 19:47 43.54931 0.66780 22364 ft 396 kts 71°
2026-04-23 19:47 43.55694 0.70447 23031 ft 399 kts 71°
2026-04-23 19:47 43.56462 0.74143 23685 ft 403 kts 71°
2026-04-23 19:47 43.57234 0.77875 24228 ft 407 kts 71°
2026-04-23 19:48 43.58015 0.81647 24743 ft 411 kts 71°
2026-04-23 19:48 43.58801 0.85452 25272 ft 414 kts 71°
2026-04-23 19:48 43.59592 0.89293 25791 ft 418 kts 71°
2026-04-23 19:48 43.60389 0.93169 26295 ft 422 kts 71°
2026-04-23 19:49 43.61191 0.97077 26800 ft 425 kts 71°
2026-04-23 19:49 43.62000 1.01023 27280 ft 429 kts 71°
2026-04-23 19:49 43.62812 1.04998 27765 ft 432 kts 71°
2026-04-23 19:49 43.63631 1.09009 28235 ft 436 kts 71°
2026-04-23 19:50 43.64454 1.13053 28676 ft 439 kts 71°
2026-04-23 19:50 43.65282 1.17129 29151 ft 442 kts 70°
2026-04-23 19:50 43.66115 1.21233 29626 ft 445 kts 70°
2026-04-23 19:50 43.66951 1.25362 30060 ft 448 kts 70°
2026-04-23 19:51 43.67905 1.29463 30407 ft 448 kts 63°
2026-04-23 19:51 43.69282 1.33317 30749 ft 446 kts 54°
2026-04-23 19:51 43.71028 1.36770 31119 ft 444 kts 49°
2026-04-23 19:51 43.72913 1.40231 31478 ft 446 kts 49°
2026-04-23 19:52 43.74794 1.43659 31804 ft 449 kts 49°
2026-04-23 19:52 43.76678 1.47116 32133 ft 451 kts 49°
2026-04-23 19:52 43.78560 1.50605 32448 ft 454 kts 49°
2026-04-23 19:52 43.80436 1.54113 32927 ft 452 kts 49°
2026-04-23 19:53 43.82288 1.57598 33549 ft 447 kts 49°
2026-04-23 19:53 43.84096 1.61011 34087 ft 444 kts 49°
2026-04-23 19:53 43.85923 1.64462 34428 ft 444 kts 49°
2026-04-23 19:53 43.87778 1.67963 34737 ft 445 kts 50°
2026-04-23 19:54 43.89606 1.71420 35097 ft 444 kts 50°
2026-04-23 19:54 43.91428 1.74870 35506 ft 442 kts 50°
2026-04-23 19:54 43.93242 1.78308 35891 ft 441 kts 50°
2026-04-23 19:54 43.95053 1.81744 36222 ft 441 kts 50°
2026-04-23 19:55 43.96844 1.85198 36558 ft 441 kts 51°
2026-04-23 19:55 43.98598 1.88686 36915 ft 440 kts 52°
2026-04-23 19:55 44.00309 1.92138 37288 ft 439 kts 52°
2026-04-23 19:55 44.02030 1.95625 37703 ft 436 kts 52°
2026-04-23 19:56 44.03742 1.99092 38038 ft 436 kts 52°
2026-04-23 19:56 44.05460 2.02565 38324 ft 436 kts 52°
2026-04-23 19:56 44.07181 2.06039 38614 ft 436 kts 52°
2026-04-23 19:56 44.08898 2.09506 38921 ft 435 kts 52°
2026-04-23 19:57 44.10611 2.12966 39159 ft 434 kts 52°
2026-04-23 19:57 44.12323 2.16426 39393 ft 433 kts 52°
2026-04-23 19:57 44.14030 2.19881 39629 ft 433 kts 52°
2026-04-23 19:57 44.15732 2.23327 39864 ft 432 kts 52°
2026-04-23 19:58 44.17433 2.26776 40099 ft 431 kts 52°
2026-04-23 19:58 44.20850 2.33717 40195 ft 438 kts 52°
2026-04-23 19:59 44.24287 2.40718 40179 ft 436 kts 52°
2026-04-23 19:59 44.27693 2.47677 40180 ft 433 kts 52°
2026-04-23 20:00 44.31073 2.54595 40180 ft 430 kts 52°
2026-04-23 20:00 44.34429 2.61480 40184 ft 428 kts 52°
2026-04-23 20:01 44.37774 2.68359 40204 ft 428 kts 52°
2026-04-23 20:01 44.41117 2.75248 40203 ft 429 kts 52°
2026-04-23 20:02 44.44464 2.82164 40212 ft 430 kts 52°
2026-04-23 20:02 44.47818 2.89112 40210 ft 431 kts 52°
2026-04-23 20:03 44.51180 2.96092 40215 ft 433 kts 52°
2026-04-23 20:03 44.54546 3.03099 40221 ft 434 kts 52°
2026-04-23 20:04 44.57918 3.10133 40235 ft 435 kts 52°
2026-04-23 20:04 44.61272 3.17214 40215 ft 437 kts 55°
2026-04-23 20:05 44.64312 3.24635 40223 ft 438 kts 58°
2026-04-23 20:05 44.67245 3.32130 40225 ft 438 kts 57°
2026-04-23 20:06 44.70210 3.39611 40215 ft 437 kts 57°
2026-04-23 20:06 44.73179 3.47052 40225 ft 436 kts 57°
2026-04-23 20:07 44.76144 3.54497 40232 ft 435 kts 57°
2026-04-23 20:07 44.79095 3.61932 40212 ft 435 kts 57°
2026-04-23 20:08 44.82036 3.69363 40216 ft 434 kts 57°
2026-04-23 20:08 44.84965 3.76784 40223 ft 433 kts 57°
2026-04-23 20:09 44.87885 3.84199 40229 ft 433 kts 58°
2026-04-23 20:09 44.90799 3.91621 40223 ft 432 kts 58°
2026-04-23 20:10 44.93217 3.97795 40222 ft 432 kts 58°
2026-04-23 20:10 44.96613 4.06487 40219 ft 432 kts 58°
2026-04-23 20:11 44.99510 4.13927 40211 ft 432 kts 58°
2026-04-23 20:11 45.02405 4.21375 40221 ft 432 kts 58°
2026-04-23 20:12 45.05297 4.28838 40217 ft 433 kts 58°
2026-04-23 20:12 45.08182 4.36307 40207 ft 433 kts 58°
2026-04-23 20:13 45.11064 4.43785 40213 ft 433 kts 59°
2026-04-23 20:13 45.13940 4.51270 40204 ft 433 kts 59°
2026-04-23 20:14 45.16813 4.58764 40207 ft 433 kts 59°
2026-04-23 20:14 45.19680 4.66263 40200 ft 433 kts 60°
2026-04-23 20:15 45.22543 4.73774 40193 ft 433 kts 60°
2026-04-23 20:15 45.25399 4.81288 40189 ft 433 kts 60°
2026-04-23 20:16 45.28249 4.88807 40195 ft 432 kts 60°
2026-04-23 20:16 45.31093 4.96328 40198 ft 432 kts 60°
2026-04-23 20:17 45.33930 5.03854 40211 ft 432 kts 61°
2026-04-23 20:17 45.36756 5.11372 40209 ft 431 kts 61°
2026-04-23 20:18 45.39578 5.18896 40209 ft 431 kts 61°
2026-04-23 20:18 45.42389 5.26416 40209 ft 430 kts 61°
2026-04-23 20:19 45.45196 5.33942 40214 ft 430 kts 61°
2026-04-23 20:19 45.48015 5.41439 40210 ft 429 kts 58°
2026-04-23 20:20 45.51848 5.47883 40212 ft 427 kts 42°
2026-04-23 20:20 45.56317 5.53467 40203 ft 427 kts 41°
2026-04-23 20:21 45.60026 5.58114 40205 ft 426 kts 41°
2026-04-23 20:21 45.64450 5.63749 40212 ft 426 kts 42°
2026-04-23 20:22 45.68858 5.69409 40211 ft 426 kts 42°
2026-04-23 20:22 45.73264 5.75073 40203 ft 425 kts 42°
2026-04-23 20:23 45.77669 5.80729 40205 ft 425 kts 42°
2026-04-23 20:23 45.82069 5.86387 40204 ft 425 kts 42°
2026-04-23 20:24 45.86459 5.92047 40210 ft 424 kts 43°
2026-04-23 20:24 45.90846 5.97716 40208 ft 424 kts 43°
2026-04-23 20:25 45.95226 6.03388 40215 ft 424 kts 43°
2026-04-23 20:25 45.99596 6.09060 40212 ft 423 kts 43°
2026-04-23 20:26 46.03962 6.14741 40209 ft 423 kts 43°
2026-04-23 20:26 46.08326 6.20429 40214 ft 423 kts 43°
2026-04-23 20:27 46.12598 6.26271 40214 ft 423 kts 45°
2026-04-23 20:27 46.16770 6.32270 40214 ft 424 kts 46°
2026-04-23 20:28 46.20949 6.38277 40216 ft 424 kts 46°
2026-04-23 20:28 46.25142 6.44275 40222 ft 424 kts 46°
2026-04-23 20:29 46.29335 6.50272 40214 ft 424 kts 46°
2026-04-23 20:29 46.33524 6.56273 40222 ft 424 kts 46°
2026-04-23 20:30 46.37704 6.62278 40211 ft 423 kts 46°
2026-04-23 20:30 46.43937 6.71256 40216 ft 420 kts 46°
2026-04-23 20:31 46.48068 6.77225 40220 ft 418 kts 46°
2026-04-23 20:31 46.52182 6.83182 40227 ft 417 kts 46°
2026-04-23 20:32 46.56261 6.89156 40241 ft 416 kts 49°
2026-04-23 20:32 46.59941 6.95620 40234 ft 414 kts 52°
2026-04-23 20:33 46.63505 7.02198 40235 ft 414 kts 52°
2026-04-23 20:33 46.67091 7.08747 40237 ft 413 kts 52°
2026-04-23 20:34 46.70688 7.15269 40235 ft 413 kts 52°
2026-04-23 20:34 46.74285 7.21789 40240 ft 413 kts 52°
2026-04-23 20:35 46.77900 7.28358 40241 ft 412 kts 52°
2026-04-23 20:35 46.81460 7.34846 40249 ft 412 kts 51°
2026-04-23 20:36 46.85066 7.41431 40242 ft 412 kts 52°
2026-04-23 20:36 46.88641 7.47984 40242 ft 412 kts 52°
2026-04-23 20:37 46.92211 7.54549 40242 ft 412 kts 52°
2026-04-23 20:37 46.95773 7.61116 40241 ft 412 kts 52°
2026-04-23 20:38 46.99306 7.67644 40251 ft 412 kts 52°
2026-04-23 20:38 47.02885 7.74272 40247 ft 412 kts 52°
2026-04-23 20:39 47.06412 7.80822 40247 ft 412 kts 52°
2026-04-23 20:39 47.09986 7.87472 40250 ft 412 kts 52°
2026-04-23 20:40 47.13528 7.94100 40233 ft 413 kts 54°
2026-04-23 20:40 47.16648 8.01169 40243 ft 413 kts 58°
2026-04-23 20:41 47.19656 8.08361 40247 ft 413 kts 58°
2026-04-23 20:41 47.22689 8.15545 40245 ft 414 kts 58°
2026-04-23 20:42 47.25739 8.22732 40248 ft 414 kts 58°
2026-04-23 20:42 47.28784 8.29936 40256 ft 415 kts 60°
2026-04-23 20:43 47.30898 8.37798 40247 ft 415 kts 78°
2026-04-23 20:43 47.31964 8.46146 40260 ft 414 kts 79°
2026-04-23 20:44 47.32994 8.54505 40265 ft 414 kts 79°
2026-04-23 20:44 47.34034 8.62744 40266 ft 414 kts 79°
2026-04-23 20:45 47.35091 8.71026 40264 ft 413 kts 79°
2026-04-23 20:45 47.36150 8.79355 40274 ft 413 kts 78°
2026-04-23 20:46 47.37201 8.87668 40266 ft 412 kts 78°
2026-04-23 20:46 47.38244 8.95968 40268 ft 411 kts 78°
2026-04-23 20:47 47.39278 9.04254 40269 ft 410 kts 79°
2026-04-23 20:47 47.40307 9.12537 40263 ft 410 kts 79°
2026-04-23 20:48 47.41252 9.20819 40265 ft 410 kts 84°
2026-04-23 20:48 47.41243 9.29237 40253 ft 410 kts 89°
2026-04-23 20:49 47.41124 9.37632 40262 ft 408 kts 89°
2026-04-23 20:49 47.41036 9.46007 40266 ft 407 kts 89°
2026-04-23 20:50 47.40958 9.54360 40268 ft 406 kts 89°
2026-04-23 20:50 47.40955 9.62680 40268 ft 404 kts 83°
2026-04-23 20:51 47.42222 9.70618 40265 ft 400 kts 68°
2026-04-23 20:51 47.43250 9.74429 40131 ft 400 kts 67°
2026-04-23 20:51 47.44293 9.78226 39868 ft 397 kts 67°
2026-04-23 20:52 47.45324 9.81977 39627 ft 392 kts 67°
2026-04-23 20:52 47.46351 9.85737 39397 ft 388 kts 68°
2026-04-23 20:52 47.48355 9.93154 39283 ft 391 kts 68°
2026-04-23 20:53 47.50360 10.00649 39264 ft 391 kts 68°
2026-04-23 20:53 47.52345 10.08108 39273 ft 389 kts 68°
2026-04-23 20:54 47.54316 10.15544 39265 ft 387 kts 68°
2026-04-23 20:54 47.56270 10.22939 39261 ft 385 kts 68°
2026-04-23 20:55 47.58213 10.30314 39263 ft 384 kts 68°
2026-04-23 20:55 47.60147 10.37680 39272 ft 383 kts 68°
2026-04-23 20:56 47.62076 10.45049 39273 ft 384 kts 68°
2026-04-23 20:56 47.64006 10.52443 39274 ft 385 kts 68°
2026-04-23 20:57 47.65939 10.59875 39277 ft 387 kts 68°
2026-04-23 20:57 47.67873 10.67335 39272 ft 388 kts 68°
2026-04-23 20:58 47.69796 10.74778 39272 ft 389 kts 68°
2026-04-23 20:58 47.71730 10.82284 39265 ft 390 kts 68°
2026-04-23 20:59 47.73660 10.89804 39271 ft 389 kts 68°
2026-04-23 20:59 47.75272 10.96099 39275 ft 389 kts 68°
2026-04-23 21:00 47.77192 11.03625 39285 ft 389 kts 68°
2026-04-23 21:00 47.79104 11.11143 39264 ft 388 kts 68°
2026-04-23 21:01 47.81005 11.18641 39263 ft 387 kts 68°
2026-04-23 21:01 47.82893 11.26113 39264 ft 385 kts 68°
2026-04-23 21:02 47.84770 11.33563 39263 ft 384 kts 68°
2026-04-23 21:02 47.86818 11.40875 39274 ft 382 kts 64°
2026-04-23 21:03 47.89123 11.47998 39264 ft 381 kts 63°
2026-04-23 21:03 47.91429 11.55100 39271 ft 381 kts 63°
2026-04-23 21:04 47.93718 11.62233 39272 ft 381 kts 63°
2026-04-23 21:04 47.95996 11.69387 39266 ft 382 kts 64°
2026-04-23 21:05 47.98269 11.76557 39269 ft 382 kts 64°
2026-04-23 21:05 48.00538 11.83735 39270 ft 383 kts 64°
2026-04-23 21:06 48.03205 11.90575 39274 ft 382 kts 51°
2026-04-23 21:06 48.07029 11.96083 39268 ft 383 kts 42°
2026-04-23 21:07 48.11038 12.01344 39287 ft 384 kts 42°
2026-04-23 21:07 48.15046 12.06641 39271 ft 384 kts 42°
2026-04-23 21:08 48.19044 12.11965 39263 ft 385 kts 43°
2026-04-23 21:08 48.23040 12.17311 39259 ft 385 kts 43°
2026-04-23 21:09 48.27028 12.22662 39254 ft 385 kts 43°
2026-04-23 21:09 48.31012 12.28020 39243 ft 384 kts 43°
2026-04-23 21:10 48.34987 12.33378 39244 ft 384 kts 43°
2026-04-23 21:10 48.38954 12.38736 39246 ft 383 kts 43°
2026-04-23 21:11 48.42914 12.44098 39239 ft 382 kts 43°
2026-04-23 21:11 48.46861 12.49452 39241 ft 382 kts 43°
2026-04-23 21:12 48.50803 12.54813 39228 ft 381 kts 43°
2026-04-23 21:12 48.54741 12.60179 39229 ft 381 kts 43°
2026-04-23 21:13 48.58671 12.65545 39226 ft 381 kts 43°
2026-04-23 21:13 48.62575 12.70888 39229 ft 381 kts 43°
2026-04-23 21:14 48.66498 12.76268 39223 ft 381 kts 43°
2026-04-23 21:14 48.70444 12.81693 39221 ft 381 kts 43°
2026-04-23 21:15 48.74359 12.87087 39218 ft 380 kts 43°
2026-04-23 21:15 48.78269 12.92486 39220 ft 380 kts 43°
2026-04-23 21:16 48.82152 12.97859 39217 ft 380 kts 43°
2026-04-23 21:16 48.86080 13.03307 39218 ft 380 kts 43°
2026-04-23 21:17 48.89983 13.08731 39219 ft 380 kts 43°
2026-04-23 21:17 48.93884 13.14165 39212 ft 381 kts 43°
2026-04-23 21:18 48.97789 13.19617 39218 ft 381 kts 43°
2026-04-23 21:18 49.01687 13.25072 39223 ft 381 kts 42°
2026-04-23 21:19 49.05579 13.30545 39192 ft 379 kts 43°
2026-04-23 21:19 49.07464 13.33288 39010 ft 370 kts 43°
2026-04-23 21:19 49.09299 13.36002 38598 ft 367 kts 43°
2026-04-23 21:20 49.11132 13.38725 37883 ft 369 kts 44°
2026-04-23 21:20 49.12983 13.41475 37138 ft 374 kts 44°
2026-04-23 21:20 49.14850 13.44249 36396 ft 374 kts 43°
2026-04-23 21:20 49.16718 13.47022 35574 ft 376 kts 43°
2026-04-23 21:21 49.18601 13.49816 34711 ft 378 kts 43°
2026-04-23 21:21 49.20497 13.52631 33855 ft 380 kts 43°
2026-04-23 21:21 49.22384 13.55434 33180 ft 375 kts 43°
2026-04-23 21:21 49.24240 13.58195 32588 ft 370 kts 43°
2026-04-23 21:22 49.26048 13.60887 31965 ft 366 kts 43°
2026-04-23 21:22 49.27864 13.63593 31314 ft 363 kts 43°
2026-04-23 21:22 49.29663 13.66276 30674 ft 360 kts 43°
2026-04-23 21:22 49.31450 13.68944 30023 ft 357 kts 43°
2026-04-23 21:23 49.33221 13.71592 29328 ft 353 kts 43°
2026-04-23 21:23 49.34970 13.74208 28650 ft 350 kts 43°
2026-04-23 21:23 49.36702 13.76803 27971 ft 347 kts 43°
2026-04-23 21:23 49.38419 13.79378 27315 ft 343 kts 43°
2026-04-23 21:24 49.40119 13.81929 26695 ft 340 kts 43°
2026-04-23 21:24 49.41803 13.84458 26090 ft 337 kts 43°
2026-04-23 21:24 49.43469 13.86965 25518 ft 334 kts 42°
2026-04-23 21:24 49.45126 13.89459 24872 ft 335 kts 42°
2026-04-23 21:25 49.46824 13.92016 24240 ft 339 kts 42°
2026-04-23 21:25 49.48515 13.94565 23592 ft 342 kts 42°
2026-04-23 21:25 49.50196 13.97103 22880 ft 345 kts 42°
2026-04-23 21:25 49.51910 13.99693 22168 ft 344 kts 42°
2026-04-23 21:26 49.53604 14.02258 21456 ft 341 kts 42°
2026-04-23 21:26 49.55286 14.04807 20724 ft 338 kts 42°
2026-04-23 21:26 49.56953 14.07336 20016 ft 335 kts 41°
2026-04-23 21:26 49.58609 14.09850 19324 ft 333 kts 41°
2026-04-23 21:27 49.60274 14.12380 18656 ft 331 kts 41°
2026-04-23 21:27 49.61884 14.14828 17903 ft 329 kts 41°
2026-04-23 21:27 49.63507 14.17299 17181 ft 326 kts 41°
2026-04-23 21:27 49.65112 14.19744 16518 ft 322 kts 41°
2026-04-23 21:28 49.66698 14.22164 15864 ft 319 kts 41°
2026-04-23 21:28 49.68271 14.24567 15220 ft 317 kts 41°
2026-04-23 21:28 49.69852 14.26983 14597 ft 314 kts 42°
2026-04-23 21:28 49.71379 14.29318 13990 ft 312 kts 42°
2026-04-23 21:29 49.72934 14.31699 13328 ft 309 kts 42°
2026-04-23 21:29 49.74427 14.33988 12691 ft 305 kts 42°
2026-04-23 21:29 49.75923 14.36283 12069 ft 301 kts 42°
2026-04-23 21:29 49.77417 14.38577 11525 ft 295 kts 41°
2026-04-23 21:30 49.78836 14.40757 11063 ft 288 kts 41°
2026-04-23 21:30 49.80240 14.42917 10640 ft 282 kts 41°
2026-04-23 21:30 49.81632 14.45058 10070 ft 282 kts 41°
2026-04-23 21:30 49.83016 14.47191 9529 ft 279 kts 41°
2026-04-23 21:31 49.84342 14.49261 9390 ft 262 kts 44°
2026-04-23 21:31 49.85397 14.51506 9107 ft 256 kts 53°
2026-04-23 21:31 49.86325 14.53848 8660 ft 254 kts 54°
2026-04-23 21:31 49.87269 14.56181 8184 ft 250 kts 49°
2026-04-23 21:32 49.88355 14.58259 7753 ft 247 kts 45°
2026-04-23 21:32 49.89609 14.59984 7318 ft 238 kts 24°
2026-04-23 21:32 49.91129 14.60886 6908 ft 232 kts 11°
2026-04-23 21:32 49.92680 14.60706 6519 ft 227 kts 335°
2026-04-23 21:33 49.93885 14.59152 6230 ft 228 kts 316°
2026-04-23 21:33 49.94961 14.57290 5904 ft 234 kts 313°
2026-04-23 21:33 49.95976 14.55314 5585 ft 235 kts 310°
2026-04-23 21:33 49.96959 14.53286 5269 ft 235 kts 310°
2026-04-23 21:34 49.97935 14.51249 4961 ft 235 kts 309°
2026-04-23 21:34 49.98910 14.49214 4648 ft 232 kts 310°
2026-04-23 21:34 49.99848 14.47259 4326 ft 220 kts 310°
2026-04-23 21:34 50.00740 14.45403 4021 ft 208 kts 310°
2026-04-23 21:35 50.01583 14.43651 3761 ft 197 kts 310°
2026-04-23 21:35 50.02387 14.41982 3492 ft 188 kts 311°
2026-04-23 21:35 50.03142 14.40412 3245 ft 174 kts 311°
2026-04-23 21:35 50.03831 14.38982 3028 ft 157 kts 311°
2026-04-23 21:36 50.04998 14.36563 2640 ft 122 kts 311°
2026-04-23 21:36 50.05481 14.35559 2469 ft 111 kts 311°
2026-04-23 21:36 50.05957 14.34583 2240 ft 114 kts 310°
2026-04-23 21:37 50.06435 14.33580 2147 ft 119 kts 310°
2026-04-23 21:37 50.06936 14.32547 2007 ft 119 kts 309°
2026-04-23 21:37 50.07437 14.31503 1823 ft 122 kts 307°
2026-04-23 21:37 50.07942 14.30454 1653 ft 122 kts 306°
2026-04-23 21:38 50.08455 14.29387 1472 ft 125 kts 304°
2026-04-23 21:38 50.08975 14.28309 1299 ft 124 kts 305°
2026-04-23 21:38 50.09470 14.27283 1209 ft 108 kts 307°
2026-04-23 21:38 50.09851 14.26497 1202 ft 74 kts 307°
2026-04-23 21:39 50.10098 14.25980 1189 ft 47 kts 306°
2026-04-23 21:39 50.10281 14.25696 1184 ft 27 kts 335°
2026-04-23 21:39 50.10373 14.25655 1182 ft 13 kts 358°
2026-04-23 21:39 50.10460 14.25673 1177 ft 13 kts 24°
2026-04-23 21:40 50.10494 14.25807 1175 ft 15 kts 79°
2026-04-23 21:40 50.10516 14.25985 1172 ft 18 kts 79°
2026-04-23 21:40 50.10539 14.26171 1173 ft 17 kts 85°
2026-04-23 21:40 50.10495 14.26336 1169 ft 17 kts 124°
2026-04-23 21:41 50.10443 14.26455 1173 ft 10 kts 125°
2026-04-23 21:41 50.10408 14.26537 1170 ft 8 kts 124°
2026-04-23 21:41 50.10386 14.26592 1173 ft 4 kts 106°
2026-04-23 21:41 50.10400 14.26623 1173 ft 1 kts 35°
2026-04-23 21:42 50.10406 14.26629 1170 ft 1 kts 36°
2026-04-23 21:42 50.10411 14.26635 1171 ft 0 kts 36°